Погода в Ново-Осетинском

Россия / Кабардино-Балкарская Республика     43˚41′22″N   43˚47′53″E
темп.,
°C
ветер,
м/с
пор.,
м/с
влажн.,
%
обл.,
%
осадки,
мм/ч
давл.,
гПа
погр.,
м
17 января, вс
вс1700:00+2˚вюв4678100 0.0 1013613
03:00в4686100 0.1 1011405
06:00вюв5794100 0.1 1008402
09:00вюв5894100 0.4 1006389
12:00+1˚в4793100 0.1 1004414
15:00+1˚в5790100 0.1 1002395
18:00+1˚в3594100 0.0 1004301
21:00+1˚всв3496100 0.0 1003216
18 января, пн
пн1800:00+1˚всв3496100 0.1 1004197
03:00ссв3396100 0.2 1004186
06:00ссв1295100 0.1 1006119
09:00ссз3588100 0.1 1010330
12:00+2˚ссз4677100 0.2 1011606
15:00+3˚зсз3760100 0.3 10121055
18:00ссз3664100 0.0 1015317
21:00−2˚ссв2470100 0.0 1016171
19 января, вт
вт1900:00−2˚всв0172100 0.0 1017148
03:00−3˚вюв2277100 0.0 1018139
06:00−3˚сз1287100 0.1 1020262
09:00−3˚ю3487100 0.4 1021322
12:00ююв565923 0.0 1019540
15:00+1˚ююв455212 0.0 1017759
18:00−2˚в22650 0.0 102022
21:00−3˚вюв23800 0.0 102174
20 января, ср
ср2000:00−3˚с11790 0.0 102221
03:00−4˚ссз47851 0.0 1023284
06:00−5˚ссв249189 0.2 1024276
09:00−4˚юв228995 0.6 1025245
12:00−2˚юв227098 0.1 1024643
15:00−1˚вюв226499 0.1 1023848
18:00−4˚юв127796 0.0 102721
21:00−4˚ююз018065 0.0 102921
21 января, чт
чт2100:00−4˚с358939 0.1 1030360
03:00−5˚св018961 0.1 103121
06:00−6˚ююв12900 0.0 103222
09:00−4˚ю22693 0.0 1033132
12:00ююв124219 0.0 1031513
15:00+1˚ююв224310 0.0 1031611
18:00−2˚ююв23610 0.0 103323
21:00−3˚ююв22620 0.0 103421